Location: Augustenthal
(51.7167°N, 10.2833°E)
Time: 04:11:45
(UTC+00:00)

Okean 3 - Pass Details

Date: 18 May 2021
Orbit: 575 x 601 km, 82.5° (Epoch: 14 June)

Event Time Altitude Azimuth Distance (km) Brightness Sun altitude
Exits shadow 23:06:39 29° 227° (SW) 1,083 4.4 -18.5°
Maximum altitude 23:08:26 48° 285° (WNW) 769 4.1 -18.5°
Drops below altitude 10° 23:12:32 10° 1° (N) 1,915 7.4 -18.5°
Sets 23:14:48 0° 7° (N) 2,816 8.6 -18.5°
